Wittman Regional Airport
KOSH : rendu visible

Aérodrome :











RETROUVEZ-NOUS SUR...

 
LOGIN :

S'inscrire | Disclaimer

   EN    FR    IT 

 









Légende :    VFR   VFR Marginal   IFR   IFR Intensif   IFR Très Intensif
Visi : 
Plafond : 
>= 8 km
>= 3000ft
5 à 8 km
1000 à 3000 ft
1500m à 5 km
500 à 1000 ft
800 à 1500m
200 à 500 ft
< 800m
< 200 ft
Symboles :   Orages  Brouillard  Fortes neiges  Fortes précipitations  Vent > 20 kt






- Altitude de l'aérodrome : 808 ft
- Code IATA : OSH


KOSH - Wittman Regional

DERNIER METAR :
  • 251853Z 20010G17KT 10SM CLR 27/19 A2990 RMK AO2 SLP113 T02670189

METARs EXPIRÉS :
  • 251753Z 18013G19KT 10SM CLR 27/19 A2990 RMK AO2 SLP111 T02670194 10267 20211 58002
  • 251653Z 20011KT 10SM SCT016 26/19 A2992 RMK AO2 SLP119 T02610194

Prévision TAF périmée.
FIR KZAU / Amérique du Nord



MET'MAP, la Météo Aéronautique d'un coup d'oeil ! - Copyright ORBIFLY Décembre 2007 - Disclaimer

ORBIFLY MET'MAP TEAM :

Programmation & Développement : Alexandra Zaïnal
Sur une idée originale de : Baudouin d'Aumeries
Assistance à la programmation : Marc-Olivier Méhu
Soutien technique & logistique : Manuel Goepfert

Contact : metmap@orbifly.com




SOURCES & CREDITS :

   NOAA       Earth
Advisory